Погода в Данидине

Новая Зеландия     45°52′34″S   170°30′09″E
темп.,
°C
ветер,
м/с
пор.,
м/с
влажн.,
%
обл.,
%
осадки,
мм/ч
давл.,
гПа
погр.,
м
16 июня, ср
ср1600:00+10вюв4494100 4.8 1010293
03:00+9вюв8894100 2.8 1011548
06:00+9в8895100 3.6 1010519
09:00+10в4494100 0.5 1010289
12:00+10всв119399 0.7 1009219
15:00+10зюз238894 0.1 1008230
18:00+10зюз4689100 0.1 1008310
21:00+10з478792 0.1 1008360
17 июня, чт
чт1700:00+10ююз91089100 0.5 1009749
03:00+9юз898299 0.5 1010848
06:00+9юз7985100 1.1 1011890
09:00+9ююз8878100 1.3 10131118
12:00+8ю7779100 2.4 1014930
15:00+8ю7773100 0.8 10141091
18:00+8ююв5676100 1.9 10151039
21:00+8ююв557090 0.8 1017983
18 июня, пт
пт1800:00+8юв557192 1.2 1017948
03:00+7юв446692 0.2 1018995
06:00+7юв446388 0.3 1018911
09:00+7вюв446399 0.0 1019889
12:00+8в446792 0.1 1020873
15:00+8в557116 0.0 1019812
18:00+8всв677465 0.1 1019885
21:00+9всв676891 0.1 10191082
19 июня, сб
сб1900:00+9св786991 0.1 10191145
03:00+9всв8975100 0.1 1019820
06:00+9всв898099 0.2 1018896
09:00+9всв8980100 0.3 1019881
12:00+9всв8979100 0.3 1019800
15:00+9всв7877100 0.1 1018748
18:00+9св6877100 0.1 1018646
21:00+9св6778100 0.0 1018657
20 июня, вс
вс2000:00+9св6878100 0.0 1017757
03:00+9св687832 0.0 1016798
06:00+9св358075 0.1 1014331
09:00+9с34825 0.0 1014262
12:00+9св46835 0.0 1014430
15:00+10всв45855 0.0 1012398
18:00+9вюв11835 0.0 1014244
21:00+9юз3386100 0.1 1016274